EW4696 Weather Reports


time (UTC)temp
F
wind
direction
speed
knots
gust
knots
rain 1hr
in
rain 24hr
in
rain mn
in
humidity
%
barometer
mb
20210620093005 76 0 0.0 0.9 0.00 0.00 0.00 85 1011.4
20210620091504 76 0 0.0 1.7 0.00 0.00 0.00 85 1011.4
20210620090005 76 0 0.0 3.5 0.00 0.00 0.00 84 1011.4
20210620084505 76 185 0.9 4.3 0.00 0.00 0.00 84 1011.4
20210620083004 76 0 0.0 2.6 0.00 0.00 0.00 83 1011.5
20210620081505 77 0 0.0 0.9 0.00 0.00 0.00 83 1011.3
20210620080005 77 0 0.0 3.5 0.00 0.00 0.00 82 1011.5
20210620074504 77 0 0.0 2.6 0.00 0.00 0.00 81 1011.6
20210620073004 78 0 0.0 4.3 0.00 0.00 0.00 81 1011.8
20210620071505 78 194 0.9 2.6 0.00 0.00 0.00 80 1011.7
20210620070004 78 205 0.9 5.2 0.00 0.00 0.00 79 1011.8
20210620064504 79 0 0.0 2.6 0.00 0.00 0.00 79 1012.0
20210620063005 79 0 0.0 5.2 0.00 0.00 0.00 78 1012.1
20210620061504 79 202 0.9 6.1 0.00 0.00 0.00 78 1012.1
20210620060005 80 182 0.9 5.2 0.00 0.00 0.00 78 1012.2
20210620054505 80 199 0.9 5.2 0.00 0.00 0.00 77 1012.4
20210620053004 81 196 0.9 6.1 0.00 0.00 0.00 77 1012.3
20210620051504 81 197 0.9 5.2 0.00 0.00 0.00 76 1012.4
20210620050005 81 187 0.9 4.3 0.00 0.00 0.00 75 1012.5
20210620044504 82 0 0.0 3.5 0.00 0.00 0.00 74 1012.5
20210620043004 82 0 0.0 4.3 0.00 0.00 0.00 73 1012.4
20210620041504 83 199 0.9 6.1 0.00 0.00 0.00 71 1012.3
20210620040004 83 209 0.9 5.2 0.00 0.00 0.00 69 1012.2
20210620034505 83 0 0.0 0.9 0.00 0.00 0.00 67 1012.1
20210620033005 83 0 0.0 1.7 0.00 0.00 0.00 66 1011.9
20210620031505 83 0 0.0 2.6 0.00 0.00 0.00 65 1011.6
20210620030006 84 0 0.0 0.9 0.00 0.00 0.00 64 1011.5
20210620024506 84 0 0.0 1.7 0.00 0.00 0.00 63 1011.4
20210620023005 84 0 0.0 1.7 0.00 0.00 0.00 62 1011.3
20210620021506 85 0 0.0 2.6 0.00 0.00 0.00 61 1011.3
20210620020006 85 0 0.0 3.5 0.00 0.00 0.00 59 1011.1
20210620014505 86 0 0.0 2.6 0.00 0.00 0.00 58 1011.0
20210620013005 86 0 0.0 2.6 0.00 0.00 0.00 56 1011.0
20210620011506 87 0 0.0 1.7 0.00 0.00 0.00 55 1011.0
20210620010005 88 0 0.0 2.6 0.00 0.00 0.00 53 1010.9
20210620004505 88 0 0.0 2.6 0.00 0.00 0.00 51 1010.8
20210620003005 88 0 0.0 5.2 0.00 0.00 0.00 50 1010.8
20210620001505 89 0 0.0 3.5 0.00 0.00 0.00 49 1010.7
20210620000006 89 0 0.0 5.2 0.00 0.00 0.00 48 1010.6
20210619234505 90 187 0.9 4.3 0.00 0.00 0.00 49 1010.7
20210619233006 90 0 0.0 2.6 0.00 0.00 0.00 47 1010.7
20210619231506 90 207 0.9 4.3 0.00 0.00 0.00 47 1010.6
20210619230005 91 0 0.0 2.6 0.00 0.00 0.00 46 1010.7
20210619224505 92 197 0.9 5.2 0.00 0.00 0.00 46 1010.8
20210619223006 92 186 0.9 2.6 0.00 0.00 0.00 47 1010.9
20210619221505 93 0 0.0 3.5 0.00 0.00 0.00 46 1010.9
20210619220006 93 182 0.9 3.5 0.00 0.00 0.00 46 1010.9
20210619214505 94 0 0.0 4.3 0.00 0.00 0.00 44 1010.9
20210619213005 94 193 0.9 4.3 0.00 0.00 0.00 44 1011.0
20210619211505 94 222 0.9 2.6 0.00 0.00 0.00 45 1011.2
20210619210005 94 170 0.9 3.5 0.00 0.00 0.00 47 1011.3
20210619204505 93 177 0.9 3.5 0.00 0.00 0.00 46 1011.5
20210619203005 94 0 0.0 2.6 0.00 0.00 0.00 43 1011.6
20210619201506 94 0 0.0 1.7 0.00 0.00 0.00 45 1011.7
20210619200005 93 179 0.9 4.3 0.00 0.00 0.00 46 1011.9
20210619194505 93 0 0.0 3.5 0.00 0.00 0.00 48 1012.0
20210619193006 93 203 0.9 2.6 0.00 0.00 0.00 50 1012.1
20210619191505 92 160 0.9 4.3 0.00 0.00 0.00 52 1012.2
20210619190005 92 0 0.0 2.6 0.00 0.00 0.00 47 1012.4
20210619184505 92 0 0.0 5.2 0.00 0.00 0.00 51 1012.8
20210619183005 91 0 0.0 2.6 0.00 0.00 0.00 52 1012.7
20210619181506 90 0 0.0 3.5 0.00 0.00 0.00 52 1013.1
20210619180005 90 0 0.0 2.6 0.00 0.00 0.00 55 1013.2
20210619174505 89 195 0.9 4.3 0.00 0.00 0.00 53 1013.4
20210619173006 89 186 0.9 3.5 0.00 0.00 0.00 55 1013.6
20210619171505 88 0 0.0 4.3 0.00 0.00 0.00 55 1013.7
20210619170005 88 182 0.9 4.3 0.00 0.00 0.00 57 1013.8
20210619164505 88 175 0.9 6.1 0.00 0.00 0.00 55 1014.0
20210619163005 88 188 0.9 5.2 0.00 0.00 0.00 56 1014.1
20210619161505 87 0 0.0 4.3 0.00 0.00 0.00 58 1014.2
20210619160005 86 0 0.0 3.5 0.00 0.00 0.00 61 1014.1
20210619154506 86 177 0.9 5.2 0.00 0.00 0.00 64 1014.1
20210619153005 85 0 0.0 3.5 0.00 0.00 0.00 62 1014.0
20210619151505 84 179 0.9 5.2 0.00 0.00 0.00 65 1014.1
20210619150005 83 0 0.0 3.5 0.00 0.00 0.00 66 1014.1
20210619144505 82 0 0.0 2.6 0.00 0.00 0.00 69 1014.0
20210619143005 81 0 0.0 3.5 0.00 0.00 0.00 70 1014.1
20210619141505 80 0 0.0 3.5 0.00 0.00 0.00 73 1014.1
20210619140006 79 0 0.0 1.7 0.00 0.00 0.00 73 1014.1
20210619134505 78 0 0.0 0.9 0.00 0.00 0.00 75 1014.0
20210619133005 77 0 0.0 1.7 0.00 0.00 0.00 76 1013.7
20210619131505 76 0 0.0 1.7 0.00 0.00 0.00 79 1013.6
20210619130006 74 0 0.0 0.9 0.00 0.00 0.00 81 1013.5
20210619124505 72 0 0.0 0.9 0.00 0.00 0.00 83 1013.4
20210619123005 70 0 0.0 0.0 0.00 0.00 0.00 84 1013.3
20210619121505 69 0 0.0 0.0 0.00 0.00 0.00 84 1013.2
20210619120006 68 0 0.0 0.0 0.00 0.00 0.00 83 1013.1
20210619114505 68 0 0.0 0.0 0.00 0.00 0.00 83 1013.1
20210619113005 68 0 0.0 0.0 0.00 0.00 0.00 82 1013.0
20210619111505 69 0 0.0 0.0 0.00 0.00 0.00 81 1012.9
20210619110005 69 0 0.0 0.0 0.00 0.00 0.00 81 1012.8
20210619104505 69 0 0.0 0.0 0.00 0.00 0.00 81 1012.7
20210619103004 69 0 0.0 0.0 0.00 0.00 0.00 80 1012.7
20210619101505 69 0 0.0 0.0 0.00 0.00 0.00 80 1012.6
20210619100005 69 0 0.0 0.0 0.00 0.00 0.00 80 1012.4
20210619094505 70 0 0.0 0.0 0.00 0.00 0.00 79 1012.5